Theta_e
311 307 304 307 307 307 305 304 304 307 311 309 310 311 313 316 319 320 321 326 329 331 333 336 340 341 342 344 339 338 340 348 343 337 337 338 339 343 345 349 354 356 358 355
307 304 308 308 307 305 304 303 304 307 310 309 309 309 313 315 317 319 320 322 326 329 332 333 337 340 341 343 345 342 341 348 346 340 341 339 341 343 346 349 355 357 358 355
305 306 308 307 305 303 305 304 304 304 308 310 308 306 310 314 317 321 325 326 327 328 330 333 334 338 340 341 344 346 348 347 348 345 342 344 344 345 345 348 350 354 356 354
307 309 306 305 304 306 303 308 306 305 305 301 309 299 308 311 313 315 318 320 322 326 330 332 333 334 338 339 342 345 350 352 348 350 341 345 338 339 344 348 350 353 355 353
306 305 305 304 305 308 305 308 307 307 305 305 305 302 306 310 309 312 316 318 322 324 327 329 331 333 336 337 338 341 352 352 353 350 346 344 345 342 346 347 358 359 355 350
310 312 309 309 309 310 310 308 308 308 306 299 304 303 303 308 310 313 315 317 319 322 322 324 327 330 332 335 336 338 348 352 353 352 351 347 347 347 344 346 346 349 345 343
308 308 311 311 307 311 309 306 299 299 299 299 305 302 305 311 314 314 314 319 324 326 327 328 328 329 334 332 333 336 345 348 350 351 351 349 348 352 350 352 349 347 339 335
303 301 308 310 309 306 307 307 301 294 296 300 305 300 306 314 315 316 320 324 327 328 330 331 332 334 335 338 341 338 336 343 343 349 349 351 350 347 349 352 351 347 345 344
303 302 309 309 311 310 308 304 309 304 305 300 303 307 311 314 316 318 320 323 324 326 328 330 332 334 334 336 338 342 337 338 343 345 348 349 351 350 348 352 358 350 349 349
308 301 307 309 312 311 309 311 303 305 297 295 301 303 304 311 315 318 319 320 322 324 324 325 328 332 334 336 337 339 343 336 337 341 344 345 349 352 352 355 358 355 355 350
311 306 305 308 306 306 307 306 307 306 304 297 296 301 312 316 316 317 318 319 320 321 322 323 324 327 329 331 334 336 337 342 341 337 339 344 346 350 354 354 358 358 356 353
312 308 302 304 310 310 309 307 307 302 301 304 302 301 316 316 316 317 317 318 320 321 321 322 323 324 325 327 329 331 335 335 340 345 342 341 342 346 354 355 357 354 354 351
312 308 300 302 307 309 307 309 310 308 309 302 299 302 316 316 316 317 317 317 318 319 320 321 321 321 322 323 325 326 329 332 335 342 344 345 344 344 353 355 356 352 349 349
314 309 305 299 303 306 303 304 307 307 302 302 302 305 310 313 314 315 316 317 317 317 317 317 318 318 320 320 321 322 324 327 331 335 341 344 345 346 347 351 351 350 350 349
311 304 306 306 304 302 301 301 302 302 303 298 301 302 306 312 312 313 314 316 315 315 315 315 315 316 316 317 319 320 321 324 327 331 334 343 345 346 346 348 346 348 347 348
308 300 301 298 300 299 297 299 299 299 300 300 301 302 313 313 313 313 314 313 314 314 314 314 315 315 315 316 316 317 319 321 326 327 330 335 344 344 343 343 345 347 344 345
303 300 299 294 297 297 294 299 300 302 305 305 301 308 311 310 310 310 309 310 313 314 313 312 313 314 315 315 316 316 317 319 323 326 328 331 337 340 341 341 341 344 346 343
302 302 299 294 297 288 302 307 306 304 304 305 304 304 305 308 310 308 309 310 313 312 309 310 311 314 315 316 317 318 318 319 319 323 326 328 329 331 338 342 337 342 343 339
306 303 297 293 294 297 298 303 301 299 300 302 301 303 303 305 306 306 310 309 309 309 311 311 312 313 316 316 318 318 317 317 318 319 323 326 327 329 331 334 339 337 338 338
305 306 300 296 290 287 301 302 304 304 295 304 302 301 302 303 297 302 308 309 309 310 312 313 314 314 315 316 317 317 316 317 316 318 321 324 327 329 329 332 337 339 335 332
298 299 296 294 292 295 301 301 304 292 295 303 302 303 303 301 304 307 310 310 311 311 312 314 314 313 315 316 317 316 317 316 318 320 322 322 325 328 330 333 338 335 331 331
295 294 294 295 292 289 302 301 295 300 304 304 305 306 305 306 307 308 310 311 312 313 313 314 314 313 315 317 317 317 317 319 321 322 322 323 324 325 326 330 330 337 331 327
294 299 297 296 297 304 303 301 305 306 304 305 306 307 308 307 308 309 309 310 311 312 312 313 312 314 315 317 317 316 318 319 320 321 322 322 323 323 327 325 327 330 330 325
298 300 295 295 299 299 302 304 305 307 306 307 306 306 307 306 307 308 309 310 310 311 311 309 309 308 311 315 316 318 319 319 318 319 321 322 320 321 323 320 316 326 324 321
299 300 295 297 300 301 303 304 305 306 307 306 307 308 307 306 306 306 307 309 309 310 311 311 309 310 311 312 313 317 318 319 317 319 320 322 320 322 321 319 307 304 320 318
300 297 295 295 301 301 302 305 307 306 303 307 307 306 307 307 306 307 307 309 311 310 310 309 310 311 310 312 313 315 317 317 317 317 318 320 319 318 318 317 314 299 296 300
Wind_Speed
9 10 11 10 2 9 7 9 11 9 8 9 14 10 12 5 8 13 13 13 16 20 16 19 20 20 19 19 18 18 17 17 14 14 14 13 13 13 13 13 15 14 12 12
9 13 6 4 5 7 7 10 12 11 11 8 15 13 14 9 10 11 14 12 15 16 17 18 20 20 21 21 21 20 19 17 16 13 12 13 13 14 14 12 13 13 13 12
13 3 5 9 8 10 11 10 8 9 2 13 14 17 18 14 7 9 11 12 13 14 16 18 19 23 23 22 24 21 20 19 18 17 12 10 11 12 13 13 13 14 15 13
10 6 8 8 9 11 10 10 6 6 9 10 8 12 14 11 7 9 10 11 10 8 10 14 18 20 23 24 22 23 21 20 18 19 17 19 15 16 13 13 12 11 13 11
5 6 10 12 11 7 2 1 5 8 10 8 12 9 7 5 10 11 8 6 9 8 6 8 14 17 20 19 21 21 18 20 20 20 21 17 20 16 13 13 13 12 10 14
13 1 6 9 7 8 3 10 8 8 11 11 14 7 11 4 4 7 4 8 5 8 6 6 6 10 15 18 20 21 20 21 22 22 23 23 22 20 16 16 13 12 11 9
9 14 10 9 13 12 10 11 10 10 10 8 6 6 10 12 8 6 3 6 9 9 10 10 10 9 9 11 15 16 20 21 21 22 23 26 26 22 23 18 15 17 13 9
7 9 10 6 10 6 10 8 9 8 9 10 7 7 9 11 7 5 7 7 9 11 11 12 12 10 9 8 8 13 18 20 22 22 25 22 25 18 18 20 16 15 16 17
4 4 4 5 6 8 5 11 6 10 14 12 14 12 10 5 8 6 8 8 11 11 12 12 13 14 12 12 11 10 12 17 18 21 19 21 20 23 20 22 20 17 18 14
4 7 1 3 5 6 9 5 7 9 12 16 12 6 9 12 8 6 8 10 11 11 12 13 13 14 13 14 13 15 12 10 12 17 17 17 20 21 20 17 20 20 18 17
2 3 4 4 5 8 4 9 6 6 8 12 14 7 6 9 7 6 8 10 12 13 14 14 14 14 15 15 16 16 17 13 10 10 13 16 17 18 18 18 18 19 18 20
5 5 8 12 14 5 10 10 7 9 11 9 8 12 8 8 8 8 9 10 11 13 14 14 15 16 16 17 17 18 16 16 17 10 10 14 16 17 16 17 17 18 20 20
3 3 8 11 10 5 3 2 3 3 6 13 14 11 8 6 5 7 10 12 11 12 14 14 15 16 17 18 18 18 18 18 17 18 13 10 13 15 15 16 16 18 20 20
2 5 9 11 14 10 13 14 12 11 10 14 16 19 11 6 9 10 9 9 11 11 12 14 15 17 17 18 18 18 19 19 19 18 17 13 11 13 15 14 15 17 19 20
3 7 10 12 15 15 17 18 18 18 18 19 20 22 20 13 9 9 9 9 11 11 13 15 17 18 19 20 20 20 20 19 19 19 18 15 13 10 12 14 15 16 17 18
1 7 8 15 16 14 15 15 17 17 18 16 16 16 12 7 8 9 12 13 11 12 14 15 16 17 18 20 20 20 20 20 20 19 18 18 14 9 9 12 13 16 17 18
5 6 7 11 3 10 14 8 7 8 3 6 10 10 10 11 11 13 16 17 15 13 16 19 19 18 17 18 19 20 19 19 19 19 18 18 19 13 8 10 12 15 18 16
7 7 6 7 6 13 8 5 5 5 4 5 5 8 12 14 12 16 19 16 13 17 22 22 20 20 19 19 18 18 19 17 17 18 19 17 17 16 15 10 13 15 14 15
12 8 6 7 8 12 12 6 4 7 5 3 8 13 15 17 17 19 10 16 19 21 21 20 20 21 19 20 19 18 18 19 16 16 17 17 18 17 16 14 14 13 13 14
9 9 8 5 9 9 11 6 6 5 11 7 14 15 17 18 16 15 23 22 22 21 20 19 21 21 20 20 19 19 18 18 18 16 16 16 17 18 18 16 14 13 13 14
9 9 11 10 10 6 7 7 8 12 6 15 15 16 18 17 16 22 23 24 23 22 24 23 22 21 21 20 19 19 19 18 18 16 15 15 15 16 16 15 15 11 13 13
5 4 6 4 6 11 8 2 7 13 16 14 17 18 20 21 23 24 23 24 23 25 25 25 23 22 21 20 18 19 19 18 17 17 16 15 14 11 14 15 15 15 13 13
4 4 6 4 6 3 2 6 8 8 13 17 19 21 23 23 23 23 22 23 22 24 22 19 20 23 22 21 19 18 18 17 17 17 17 16 14 13 11 15 16 14 11 11
4 1 6 5 4 5 11 8 5 12 16 19 19 20 20 21 22 23 21 20 21 21 22 18 18 20 19 18 20 19 17 18 17 18 18 15 14 12 10 8 9 13 7 10
5 0 6 9 12 9 2 8 14 18 16 16 19 20 21 22 20 20 19 18 18 18 19 18 18 17 19 17 18 19 19 16 17 17 16 15 11 11 8 6 3 6 7 7
4 3 6 6 11 10 13 17 18 16 15 18 18 19 20 20 18 19 15 17 16 16 17 16 17 19 17 20 17 18 20 17 18 16 13 12 9 11 7 6 4 1 10 2
Wind_Direction
203 225 219 227 232 311 284 267 266 272 262 281 264 273 274 287 242 247 240 218 224 227 220 201 199 201 200 200 205 211 211 202 201 199 199 210 210 211 216 217 215 210 210 203
191 230 245 242 234 239 240 255 253 254 265 253 263 254 260 255 249 268 277 253 229 229 221 212 195 204 204 205 205 208 213 210 208 203 211 211 212 213 214 212 212 214 205 199
253 69 30 207 201 227 228 253 259 271 180 242 262 263 253 240 244 258 259 263 260 244 229 212 208 206 207 208 207 206 205 209 206 217 209 217 227 230 212 214 206 208 201 194
256 262 213 226 238 221 250 194 244 265 252 265 198 270 216 221 242 252 265 254 261 248 237 235 215 218 218 218 213 212 207 206 203 201 213 211 216 217 219 215 208 198 201 209
96 193 212 228 227 202 308 75 283 283 256 293 213 251 262 144 246 248 277 301 332 327 301 239 226 229 231 225 228 222 215 213 211 203 213 211 218 220 219 217 207 191 174 175
276 166 261 246 242 230 323 268 241 246 255 243 250 257 277 223 230 287 35 47 27 30 21 9 337 285 247 237 226 231 213 215 212 210 208 216 220 223 222 218 202 183 174 185
214 227 220 245 234 205 235 254 256 225 213 248 82 252 273 318 334 36 68 52 42 27 32 26 18 5 354 303 260 241 221 219 216 216 216 214 217 213 218 219 196 184 171 188
268 168 184 157 230 261 204 264 283 296 279 287 143 251 255 82 57 94 78 58 36 25 18 9 15 12 1 348 322 295 260 231 224 220 221 219 219 220 216 214 200 188 194 190
259 227 133 198 280 252 160 231 304 280 266 259 268 254 226 115 109 87 63 44 31 19 14 7 8 7 1 3 346 321 291 277 228 230 225 225 221 223 220 218 204 193 206 197
58 274 64 103 252 204 263 10 246 213 262 270 267 255 252 162 100 58 43 28 23 14 11 5 2 3 359 2 4 359 344 317 269 240 234 229 228 225 223 219 213 206 205 200
328 267 248 256 246 323 215 233 206 300 292 290 284 276 21 72 64 43 25 14 8 2 2 358 1 1 357 359 2 8 359 344 318 280 250 240 240 229 226 223 216 205 202 200
48 306 272 286 307 303 278 287 279 268 269 244 293 282 93 88 62 14 7 6 2 358 360 356 355 357 358 1 2 358 355 359 345 308 265 259 243 243 228 224 219 204 207 201
17 192 280 244 177 202 221 114 155 279 268 261 274 285 147 135 36 22 356 353 350 351 358 355 354 356 356 358 357 354 351 351 348 338 306 257 255 248 238 223 217 209 210 205
301 262 267 284 309 322 289 282 267 280 270 281 269 278 231 218 17 358 350 345 344 347 354 356 349 349 348 350 349 347 346 348 344 337 330 305 268 253 245 227 220 216 212 212
318 270 285 278 285 283 277 273 272 269 272 273 286 291 298 15 346 346 338 329 329 339 343 346 345 343 341 341 339 341 338 340 336 333 327 321 296 247 240 237 219 220 215 213
102 279 286 275 276 282 279 272 266 264 272 280 286 285 36 347 329 333 329 329 311 327 335 336 333 330 329 329 330 331 331 332 331 327 326 322 312 282 238 240 234 218 217 213
260 272 250 270 304 296 270 289 293 305 3 312 295 9 342 321 331 332 321 313 304 315 328 326 320 317 319 317 317 319 323 325 322 322 322 324 326 309 249 225 234 230 223 211
246 231 261 279 283 257 72 40 14 327 349 7 354 355 337 321 328 314 303 302 315 324 320 316 311 312 313 315 309 308 314 316 316 317 317 322 320 315 315 228 215 227 223 215
224 234 258 258 243 293 265 109 344 325 293 75 353 332 327 322 316 291 324 350 318 308 306 306 307 306 308 307 308 307 308 307 309 309 314 316 314 308 304 300 226 224 235 213
185 239 254 229 275 283 77 59 341 308 267 71 340 326 326 323 304 312 333 316 309 303 303 303 303 302 300 301 304 299 301 303 301 303 306 310 307 304 300 295 277 222 215 221
184 219 236 254 257 268 46 358 293 247 2 330 325 317 314 305 303 308 306 304 303 301 301 300 296 293 295 296 299 297 295 294 298 301 297 300 301 303 298 298 292 237 213 221
253 255 231 237 277 260 25 218 334 343 321 318 313 313 308 304 305 305 306 308 309 306 305 304 298 292 293 290 290 290 291 298 301 296 294 292 301 301 304 308 295 274 217 212
243 336 337 298 19 152 78 317 318 310 305 309 309 311 309 306 306 309 307 310 309 310 304 305 303 300 299 289 280 281 284 296 297 297 292 294 297 301 303 314 303 287 222 202
175 260 258 310 161 329 320 310 314 326 317 319 313 303 300 304 305 302 304 303 304 302 303 301 295 292 291 294 290 287 287 289 294 293 294 288 292 300 303 307 310 293 215 196
350 144 274 278 267 321 244 334 324 320 308 322 307 310 303 301 298 301 298 300 299 294 296 293 290 288 292 291 286 284 282 286 289 288 291 286 285 292 302 293 308 325 290 229
195 279 260 316 346 310 307 317 316 318 322 303 319 316 310 311 307 302 305 300 307 315 307 296 285 286 286 291 290 286 280 283 286 286 289 288 284 291 306 299 283 22 357 289